Climatologie pour Saint-Brevin les Pins
Jour • Résumé pour janvier 13, 2017 Système :  Métrique    Anglais   Mixte
« - 1 jour
+ 1 jour »
Jour Semaine Mois Année Personnalisé
  Maximum : Minimum : Moyenne :
Température sous abri : -17.8 °C -16.1 °C -14.6 °C
Point de rosée : -17.8 °C -17.6 °C -16.8 °C
Humidité : Humidity % 58 % 75 %
Vitesse du vent : 0 km/h 0 km/h 18.5 km/h
Rafale : 0 km/h - -
Direction :- - NW
Pression : 0 hPa 34256.2 hPa -
Précipitations : 0 mm    
Historical Graphs
 
 
Tableau de données pour janvier 13, 2017
Heure Tempé Pt rosée Pression Vent Vitesse Rafale Humidité Taux pluie (/hr) Soleil
-17.8 °C -17.8 °C 0 hPa Calm     Humidity % 0 mm SolarRadiationWatts/m^2 W/m2 Conditions
00:00 -14.8 °C -17 °C 34269.7 hPa NNW 28.5 km/h 54.4 km/h 76 % 0 mm 0 W/m2
00:10 -14.9 °C -17.1 °C 34269.7 hPa WNW 15.6 km/h 44.1 km/h 76 % 0 mm 0 W/m2
00:15 -14.9 °C -16.9 °C 34269.7 hPa NNW 23.3 km/h 49.2 km/h 77 % 0 mm 0 W/m2
00:20 -14.9 °C -16.9 °C 34256.2 hPa WNW 23.3 km/h 57 km/h 77 % 0 mm 0 W/m2
00:25 -14.9 °C -16.9 °C 34269.7 hPa NW 12.9 km/h 57 km/h 78 % 0 mm 0 W/m2
00:30 -14.9 °C -16.9 °C 34269.7 hPa NW 23.3 km/h 57 km/h 78 % 0 mm 0 W/m2
00:35 -14.9 °C -16.9 °C 34269.7 hPa WNW 7.7 km/h 44.1 km/h 78 % 0 mm 0 W/m2
00:40 -14.9 °C -16.8 °C 34269.7 hPa NW 20.8 km/h 46.7 km/h 78 % 0 mm 0 W/m2
00:45 -14.8 °C -16.8 °C 34269.7 hPa NW 23.3 km/h 49.2 km/h 78 % 0 mm 0 W/m2
00:50 -14.8 °C -16.8 °C 34256.2 hPa NW 44.1 km/h 51.8 km/h 78 % 0 mm 0 W/m2
00:55 -14.8 °C -16.8 °C 34256.2 hPa NW 15.6 km/h 57 km/h 77 % 0 mm 0 W/m2
01:00 -14.8 °C -16.8 °C 34269.7 hPa WNW 12.9 km/h 57 km/h 77 % 0 mm 0 W/m2
01:05 -14.8 °C -16.8 °C 34279.9 hPa NW 36.2 km/h 49.2 km/h 77 % 0 mm 0 W/m2
01:10 -14.8 °C -17 °C 34279.9 hPa WNW 15.6 km/h 49.2 km/h 75 % 0 mm 0 W/m2
01:15 -14.8 °C -17 °C 34293.4 hPa NW 23.3 km/h 46.7 km/h 75 % 0 mm 0 W/m2
01:20 -14.8 °C -17 °C 34293.4 hPa NW 28.5 km/h 49.2 km/h 75 % 0 mm 0 W/m2
01:25 -14.8 °C -17 °C 34293.4 hPa NW 20.8 km/h 49.2 km/h 75 % 0 mm 0 W/m2
01:30 -14.7 °C -17 °C 34293.4 hPa NW 10.3 km/h 41.4 km/h 75 % 0 mm 0 W/m2
01:35 -14.7 °C -16.9 °C 34293.4 hPa NW 38.8 km/h 51.8 km/h 75 % 0 mm 0 W/m2
01:40 -14.7 °C -16.9 °C 34303.6 hPa NW 59.5 km/h 59.5 km/h 75 % 0 mm 0 W/m2
01:45 -14.7 °C -17.1 °C 34293.4 hPa WNW 33.6 km/h 59.5 km/h 74 % 0 mm 0 W/m2
01:50 -14.7 °C -17.3 °C 34293.4 hPa NW 25.9 km/h 59.5 km/h 72 % 0 mm 0 W/m2
01:55 -14.8 °C -17.3 °C 34303.6 hPa WNW 23.3 km/h 64.7 km/h 72 % 0 mm 0 W/m2
02:05 -14.8 °C -17.4 °C 34293.4 hPa NW 20.8 km/h 46.7 km/h 72 % 0 mm 0 W/m2
02:10 -14.8 °C -17.3 °C 34293.4 hPa WNW 25.9 km/h 49.2 km/h 73 % 0 mm 0 W/m2
02:15 -14.8 °C -17.3 °C 34293.4 hPa WNW 23.3 km/h 49.2 km/h 73 % 0 mm 0 W/m2
02:20 -14.8 °C -17.3 °C 34293.4 hPa NW 15.6 km/h 49.2 km/h 73 % 0 mm 0 W/m2
02:25 -14.8 °C -17.2 °C 34303.6 hPa WNW 25.9 km/h 46.7 km/h 74 % 0 mm 0 W/m2
02:30 -14.8 °C -17.1 °C 34303.6 hPa NW 33.6 km/h 44.1 km/h 75 % 0 mm 0 W/m2
02:35 -14.8 °C -17 °C 34303.6 hPa NW 15.6 km/h 46.7 km/h 76 % 0 mm 0 W/m2
02:40 -14.8 °C -17 °C 34303.6 hPa WNW 31.1 km/h 46.7 km/h 76 % 0 mm 0 W/m2
02:45 -14.8 °C -16.9 °C 34303.6 hPa North 12.9 km/h 44.1 km/h 77 % 0 mm 0 W/m2
02:50 -14.8 °C -17 °C 34303.6 hPa NW 28.5 km/h 49.2 km/h 76 % 0 mm 0 W/m2
02:55 -14.8 °C -17.1 °C 34303.6 hPa NW 15.6 km/h 49.2 km/h 75 % 0 mm 0 W/m2
03:00 -14.8 °C -17.2 °C 34303.6 hPa WNW 23.3 km/h 46.7 km/h 74 % 0 mm 0 W/m2
03:05 -14.8 °C -17.2 °C 34303.6 hPa NNW 18.2 km/h 46.7 km/h 74 % 0 mm 0 W/m2
03:10 -14.9 °C -17.2 °C 34303.6 hPa NW 31.1 km/h 38.8 km/h 75 % 0 mm 0 W/m2
03:15 -14.8 °C -17.1 °C 34303.6 hPa NW 25.9 km/h 41.4 km/h 75 % 0 mm 0 W/m2
03:20 -14.8 °C -17.1 °C 34303.6 hPa NW 18.2 km/h 41.4 km/h 75 % 0 mm 0 W/m2
03:25 -14.8 °C -17.1 °C 34303.6 hPa WNW 23.3 km/h 38.8 km/h 75 % 0 mm 0 W/m2
03:30 -14.8 °C -17.1 °C 34303.6 hPa West 5.1 km/h 36.2 km/h 75 % 0 mm 0 W/m2
03:35 -14.8 °C -17.1 °C 34303.6 hPa NNW 23.3 km/h 36.2 km/h 75 % 0 mm 0 W/m2
03:40 -14.8 °C -16.9 °C 34303.6 hPa WNW 15.6 km/h 36.2 km/h 77 % 0 mm 0 W/m2
03:45 -14.8 °C -16.7 °C 34303.6 hPa WNW 23.3 km/h 46.7 km/h 78 % 0 mm 0 W/m2
03:50 -14.7 °C -16.6 °C 34303.6 hPa NNW 20.8 km/h 54.4 km/h 79 % 0 mm 0 W/m2
03:55 -14.7 °C -16.6 °C 34313.7 hPa NNW 20.8 km/h 54.4 km/h 78 % 0 mm 0 W/m2
04:00 -14.6 °C -16.5 °C 34313.7 hPa NNW 20.8 km/h 49.2 km/h 79 % 0 mm 0 W/m2
04:05 -14.6 °C -16.5 °C 34313.7 hPa WNW 36.2 km/h 44.1 km/h 79 % 0 mm 0 W/m2
04:10 -14.6 °C -16.4 °C 34313.7 hPa NW 12.9 km/h 54.4 km/h 79 % 0 mm 0 W/m2
04:20 -14.5 °C -16.4 °C 34313.7 hPa NW 49.2 km/h 54.4 km/h 79 % 0 mm 0 W/m2
04:25 -14.5 °C -16.3 °C 34313.7 hPa NNW 18.2 km/h 54.4 km/h 79 % 0 mm 0 W/m2
04:30 -14.4 °C -16.3 °C 34313.7 hPa NW 23.3 km/h 51.8 km/h 79 % 0 mm 0 W/m2
04:35 -14.4 °C -16.3 °C 34313.7 hPa North 31.1 km/h 51.8 km/h 79 % 0 mm 0 W/m2
04:40 -14.4 °C -16.3 °C 34313.7 hPa NW 18.2 km/h 51.8 km/h 79 % 0 mm 0 W/m2
04:45 -14.4 °C -16.3 °C 34313.7 hPa NNW 25.9 km/h 46.7 km/h 79 % 0 mm 0 W/m2
04:50 -14.4 °C -16.3 °C 34303.6 hPa NNW 15.6 km/h 46.7 km/h 79 % 0 mm 0 W/m2
04:55 -14.4 °C -16.3 °C 34303.6 hPa NW 20.8 km/h 41.4 km/h 79 % 0 mm 0 W/m2
05:00 -14.4 °C -16.3 °C 34303.6 hPa WNW 28.5 km/h 36.2 km/h 79 % 0 mm 0 W/m2
05:05 -14.4 °C -16.4 °C 34313.7 hPa WNW 33.6 km/h 46.7 km/h 78 % 0 mm 0 W/m2
05:10 -14.4 °C -16.4 °C 34313.7 hPa NW 18.2 km/h 46.7 km/h 77 % 0 mm 0 W/m2
05:15 -14.4 °C -16.4 °C 34313.7 hPa WNW 12.9 km/h 46.7 km/h 77 % 0 mm 0 W/m2
05:20 -14.3 °C -16.6 °C 34313.7 hPa NW 18.2 km/h 44.1 km/h 76 % 0 mm 0 W/m2
05:25 -14.3 °C -16.5 °C 34327.3 hPa WNW 15.6 km/h 44.1 km/h 76 % 0 mm 0 W/m2
05:30 -14.3 °C -16.4 °C 34327.3 hPa NW 28.5 km/h 44.1 km/h 77 % 0 mm 0 W/m2
05:35 -14.3 °C -16.4 °C 34327.3 hPa NW 18.2 km/h 49.2 km/h 77 % 0 mm 0 W/m2
05:40 -14.2 °C -16.3 °C 34327.3 hPa WNW 18.2 km/h 57 km/h 77 % 0 mm 0 W/m2
05:45 -14.2 °C -16.2 °C 34313.7 hPa WNW 25.9 km/h 57 km/h 77 % 0 mm 0 W/m2
05:50 -14.1 °C -16.3 °C 34327.3 hPa NW 23.3 km/h 62.1 km/h 76 % 0 mm 0 W/m2
05:55 -14.1 °C -16.2 °C 34327.3 hPa NW 20.8 km/h 62.1 km/h 76 % 0 mm 0 W/m2
06:00 -14.1 °C -16.3 °C 34337.4 hPa NNW 18.2 km/h 80.3 km/h 75 % 0 mm 0 W/m2
06:05 -14.1 °C -16.6 °C 34337.4 hPa NNW 46.7 km/h 80.3 km/h 73 % 0 mm 0 W/m2
06:10 -14.1 °C -16.6 °C 34337.4 hPa WNW 18.2 km/h 67.3 km/h 73 % 0 mm 0 W/m2
06:15 -14.2 °C -16.6 °C 34327.3 hPa NW 18.2 km/h 57 km/h 74 % 0 mm 0 W/m2
06:20 -14.3 °C -16.7 °C 34327.3 hPa NW 15.6 km/h 51.8 km/h 74 % 0 mm 0 W/m2
06:25 -14.3 °C -16.6 °C 34327.3 hPa NW 20.8 km/h 41.4 km/h 75 % 0 mm 0 W/m2
06:30 -14.3 °C -16.5 °C 34327.3 hPa NW 28.5 km/h 44.1 km/h 76 % 0 mm 0 W/m2
06:35 -14.3 °C -16.6 °C 34327.3 hPa NW 20.8 km/h 44.1 km/h 76 % 0 mm 0 W/m2
06:40 -14.4 °C -16.6 °C 34327.3 hPa North 28.5 km/h 38.8 km/h 76 % 0 mm 0 W/m2
06:45 -14.4 °C -16.6 °C 34337.4 hPa NW 15.6 km/h 46.7 km/h 76 % 0 mm 0 W/m2
06:50 -14.4 °C -16.6 °C 34347.6 hPa NW 33.6 km/h 57 km/h 76 % 0 mm 0 W/m2
06:55 -14.3 °C -16.5 °C 34347.6 hPa NW 25.9 km/h 57 km/h 76 % 0 mm 0 W/m2
07:00 -14.3 °C -16.4 °C 34347.6 hPa WNW 18.2 km/h 57 km/h 76 % 0 mm 0 W/m2
07:05 -14.2 °C -16.4 °C 34347.6 hPa WNW 15.6 km/h 57 km/h 76 % 0 mm 0 W/m2
07:10 -14.2 °C -16.5 °C 34347.6 hPa NW 15.6 km/h 54.4 km/h 75 % 0 mm 0 W/m2
07:15 -14.3 °C -16.6 °C 34347.6 hPa NNW 12.9 km/h 54.4 km/h 75 % 0 mm 0 W/m2
07:20 -14.3 °C -16.6 °C 34361.1 hPa WNW 25.9 km/h 51.8 km/h 75 % 0 mm 0 W/m2
07:25 -14.3 °C -16.6 °C 34361.1 hPa North 25.9 km/h 51.8 km/h 75 % 0 mm 0 W/m2
07:30 -14.3 °C -16.6 °C 34361.1 hPa NNW 36.2 km/h 51.8 km/h 76 % 0 mm 0 W/m2
07:35 -14.4 °C -16.6 °C 34371.3 hPa WNW 31.1 km/h 51.8 km/h 76 % 0 mm 0 W/m2
07:40 -14.4 °C -16.5 °C 34361.1 hPa NW 25.9 km/h 41.4 km/h 77 % 0 mm 0 W/m2
07:45 -14.5 °C -16.4 °C 34371.3 hPa North 28.5 km/h 46.7 km/h 78 % 0 mm 0 W/m2
07:50 -14.6 °C -16.5 °C 34371.3 hPa WNW 15.6 km/h 46.7 km/h 78 % 0 mm 0 W/m2
07:55 -14.6 °C -16.6 °C 34384.8 hPa NNW 23.3 km/h 51.8 km/h 78 % 0 mm 0 W/m2
08:00 -14.6 °C -16.4 °C 34384.8 hPa WNW 36.2 km/h 59.5 km/h 79 % 0 mm 0 W/m2
08:05 -14.6 °C -16.5 °C 34384.8 hPa NNW 7.7 km/h 59.5 km/h 79 % 0 mm 0 W/m2
08:10 -14.7 °C -16.5 °C 34384.8 hPa NW 12.9 km/h 44.1 km/h 79 % 0 mm 0 W/m2
08:15 -14.7 °C -16.6 °C 34384.8 hPa NNW 15.6 km/h 33.6 km/h 79 % 0 mm 0 W/m2
08:20 -14.7 °C -16.6 °C 34384.8 hPa NNW 18.2 km/h 44.1 km/h 79 % 0 mm 0 W/m2
08:25 -14.8 °C -16.5 °C 34384.8 hPa NW 15.6 km/h 44.1 km/h 80 % 0 mm 0 W/m2
08:30 -14.8 °C -16.6 °C 34395 hPa NW 23.3 km/h 49.2 km/h 80 % 0 mm 0 W/m2
08:35 -14.8 °C -16.6 °C 34395 hPa WNW 12.9 km/h 51.8 km/h 80 % 0 mm 0 W/m2
08:40 -14.8 °C -16.5 °C 34395 hPa NNW 25.9 km/h 51.8 km/h 80 % 0 mm 0 W/m2
08:45 -14.8 °C -16.5 °C 34395 hPa North 18.2 km/h 44.1 km/h 80 % 0 mm 0 W/m2
08:50 -14.8 °C -16.6 °C 34405.1 hPa NW 28.5 km/h 49.2 km/h 80 % 0 mm 0 W/m2
08:55 -14.8 °C -16.6 °C 34405.1 hPa NNW 15.6 km/h 49.2 km/h 80 % 0 mm 0 W/m2
09:00 -14.8 °C -16.6 °C 34405.1 hPa NNW 36.2 km/h 44.1 km/h 80 % 0 mm 5 W/m2
09:05 -14.9 °C -16.8 °C 34405.1 hPa North 15.6 km/h 44.1 km/h 79 % 0 mm 7 W/m2
09:10 -14.9 °C -16.8 °C 34405.1 hPa NNW 12.9 km/h 51.8 km/h 79 % 0 mm 11 W/m2
09:15 -15 °C -16.8 °C 34418.7 hPa NNW 20.8 km/h 51.8 km/h 79 % 0 mm 14 W/m2
09:20 -15 °C -16.8 °C 34418.7 hPa NW 15.6 km/h 44.1 km/h 80 % 0 mm 18 W/m2
09:25 -15.1 °C -16.8 °C 34418.7 hPa WNW 10.3 km/h 38.8 km/h 80 % 0 mm 25 W/m2
09:30 -15.1 °C -16.7 °C 34418.7 hPa WNW 25.9 km/h 41.4 km/h 81 % 0 mm 23 W/m2
09:35 -15.1 °C -16.7 °C 34428.8 hPa NNW 25.9 km/h 41.4 km/h 81 % 0 mm 23 W/m2
09:40 -15 °C -16.7 °C 34428.8 hPa NW 25.9 km/h 54.4 km/h 81 % 0 mm 23 W/m2
09:45 -15 °C -16.7 °C 34442.4 hPa NW 20.8 km/h 54.4 km/h 81 % 0 mm 25 W/m2
09:50 -14.9 °C -16.6 °C 34442.4 hPa NW 36.2 km/h 46.7 km/h 82 % 0 mm 26 W/m2
09:55 -14.9 °C -16.6 °C 34442.4 hPa NNW 12.9 km/h 46.7 km/h 82 % 0 mm 26 W/m2
10:00 -14.9 °C -16.6 °C 34442.4 hPa NW 15.6 km/h 44.1 km/h 82 % 0 mm 28 W/m2
10:05 -14.9 °C -16.5 °C 34452.6 hPa NW 7.7 km/h 44.1 km/h 82 % 0 mm 30 W/m2
10:10 -14.9 °C -16.5 °C 34452.6 hPa WNW 18.2 km/h 44.1 km/h 82 % 0 mm 32 W/m2
10:15 -14.9 °C -16.5 °C 34452.6 hPa North 18.2 km/h 41.4 km/h 82 % 0 mm 33 W/m2
10:20 -14.9 °C -16.4 °C 34452.6 hPa North 15.6 km/h 41.4 km/h 82 % 0 mm 33 W/m2
10:25 -14.8 °C -16.4 °C 34462.7 hPa NNW 7.7 km/h 38.8 km/h 82 % 0 mm 35 W/m2
10:30 -14.8 °C -16.5 °C 34462.7 hPa NW 18.2 km/h 38.8 km/h 81 % 0 mm 151 W/m2
10:35 -14.6 °C -16.3 °C 34462.7 hPa NW 23.3 km/h 46.7 km/h 81 % 0 mm 158 W/m2
10:40 -14.4 °C -16.3 °C 34462.7 hPa NNW 10.3 km/h 46.7 km/h 79 % 0 mm 171 W/m2
10:45 -14.3 °C -16.3 °C 34476.3 hPa North 15.6 km/h 36.2 km/h 78 % 0 mm 183 W/m2
10:50 -14.2 °C -16.3 °C 34476.3 hPa NW 18.2 km/h 36.2 km/h 77 % 0 mm 193 W/m2
10:55 -14.1 °C -16.3 °C 34486.4 hPa NNW 15.6 km/h 44.1 km/h 75 % 0 mm 204 W/m2
11:00 -14 °C -16.4 °C 34486.4 hPa NNW 18.2 km/h 44.1 km/h 74 % 0 mm 211 W/m2
11:05 -13.9 °C -16.2 °C 34486.4 hPa NNW 15.6 km/h 38.8 km/h 76 % 0 mm 223 W/m2
11:10 -13.9 °C -16.2 °C 34486.4 hPa NW 18.2 km/h 41.4 km/h 75 % 0 mm 236 W/m2
11:15 -13.8 °C -16.2 °C 34486.4 hPa WNW 23.3 km/h 41.4 km/h 75 % 0 mm 241 W/m2
11:20 -13.8 °C -16.2 °C 34496.6 hPa NNW 18.2 km/h 44.1 km/h 74 % 0 mm 248 W/m2
11:25 -13.7 °C -16.1 °C 34496.6 hPa NNW 28.5 km/h 44.1 km/h 74 % 0 mm 257 W/m2
11:30 -13.7 °C -16.2 °C 34496.6 hPa North 15.6 km/h 38.8 km/h 73 % 0 mm 267 W/m2
11:35 -13.6 °C -16.1 °C 34496.6 hPa NW 23.3 km/h 36.2 km/h 73 % 0 mm 271 W/m2
11:40 -13.4 °C -16 °C 34496.6 hPa NNW 10.3 km/h 36.2 km/h 73 % 0 mm 276 W/m2
11:45 -13.4 °C -15.9 °C 34510.1 hPa NW 10.3 km/h 36.2 km/h 73 % 0 mm 287 W/m2
11:50 -13.3 °C -16.1 °C 34510.1 hPa NW 12.9 km/h 38.8 km/h 71 % 0 mm 290 W/m2
11:55 -13.2 °C -16 °C 34510.1 hPa NW 7.7 km/h 49.2 km/h 71 % 0 mm 299 W/m2
12:00 -13.2 °C -16.1 °C 34510.1 hPa NNW 10.3 km/h 49.2 km/h 70 % 0 mm 304 W/m2
12:05 -13.2 °C -16.1 °C 34510.1 hPa NW 12.9 km/h 41.4 km/h 69 % 0 mm 308 W/m2
12:10 -13.2 °C -16.2 °C 34510.1 hPa NW 20.8 km/h 44.1 km/h 69 % 0 mm 309 W/m2
12:15 -13.2 °C -16.1 °C 34510.1 hPa NNW 25.9 km/h 44.1 km/h 70 % 0 mm 311 W/m2
12:20 -13.2 °C -16.1 °C 34510.1 hPa NW 15.6 km/h 41.4 km/h 69 % 0 mm 311 W/m2
12:25 -13.2 °C -16.2 °C 34520.3 hPa North 2.6 km/h 41.4 km/h 68 % 0 mm 318 W/m2
12:30 -13 °C -16.1 °C 34520.3 hPa NW 25.9 km/h 41.4 km/h 68 % 0 mm 322 W/m2
12:35 -13 °C -16.1 °C 34520.3 hPa NW 28.5 km/h 41.4 km/h 68 % 0 mm 327 W/m2
12:40 -13 °C -15.9 °C 34520.3 hPa WNW 31.1 km/h 36.2 km/h 70 % 0 mm 332 W/m2
12:45 -12.9 °C -16.1 °C 34520.3 hPa WNW 18.2 km/h 38.8 km/h 68 % 0 mm 334 W/m2
12:50 -12.8 °C -16.1 °C 34520.3 hPa NNW 7.7 km/h 38.8 km/h 67 % 0 mm 338 W/m2
12:55 -12.8 °C -16.1 °C 34520.3 hPa North 10.3 km/h 36.2 km/h 67 % 0 mm 334 W/m2
13:00 -12.8 °C -16.2 °C 34520.3 hPa NNW 15.6 km/h 36.2 km/h 66 % 0 mm 336 W/m2
13:05 -12.8 °C -16.2 °C 34520.3 hPa NW 23.3 km/h 31.1 km/h 66 % 0 mm 339 W/m2
13:10 -12.7 °C -16.1 °C 34520.3 hPa WNW 15.6 km/h 38.8 km/h 66 % 0 mm 338 W/m2
13:15 -12.7 °C -16.2 °C 34520.3 hPa WNW 15.6 km/h 41.4 km/h 65 % 0 mm 338 W/m2
13:20 -12.7 °C -16.2 °C 34520.3 hPa WNW 15.6 km/h 46.7 km/h 65 % 0 mm 346 W/m2
13:25 -12.8 °C -16.3 °C 34520.3 hPa NW 28.5 km/h 46.7 km/h 65 % 0 mm 339 W/m2
13:30 -12.7 °C -16.1 °C 34520.3 hPa NW 18.2 km/h 46.7 km/h 66 % 0 mm 332 W/m2
13:35 -12.6 °C -15.8 °C 34520.3 hPa West 20.8 km/h 44.1 km/h 67 % 0 mm 330 W/m2
13:40 -12.6 °C -15.9 °C 34520.3 hPa North 18.2 km/h 38.8 km/h 66 % 0 mm 330 W/m2
13:45 -12.5 °C -15.8 °C 34520.3 hPa NNW 20.8 km/h 38.8 km/h 66 % 0 mm 329 W/m2
13:50 -12.5 °C -16.3 °C 34520.3 hPa NNW 44.1 km/h 44.1 km/h 62 % 0 mm 325 W/m2
13:55 -12.6 °C -16.4 °C 34520.3 hPa NNW 25.9 km/h 46.7 km/h 62 % 0 mm 330 W/m2
14:00 -12.4 °C -16.2 °C 34520.3 hPa North 15.6 km/h 46.7 km/h 63 % 0 mm 323 W/m2
14:05 -12.4 °C -16.1 °C 34520.3 hPa NW 10.3 km/h 44.1 km/h 63 % 0 mm 332 W/m2
14:10 -12.3 °C -16.3 °C 34520.3 hPa NNW 15.6 km/h 44.1 km/h 61 % 0 mm 322 W/m2
14:15 -12.3 °C -16.1 °C 34520.3 hPa NNW 31.1 km/h 44.1 km/h 62 % 0 mm 313 W/m2
14:20 -12.3 °C -16.4 °C 34520.3 hPa North 31.1 km/h 44.1 km/h 60 % 0 mm 325 W/m2
14:25 -12.3 °C -16.6 °C 34520.3 hPa NNW 15.6 km/h 51.8 km/h 59 % 0 mm 311 W/m2
14:30 -12.4 °C -16.8 °C 34520.3 hPa NNW 28.5 km/h 51.8 km/h 58 % 0 mm 227 W/m2
14:35 -12.7 °C -16.9 °C 34520.3 hPa NW 33.6 km/h 49.2 km/h 59 % 0 mm 207 W/m2
14:40 -12.8 °C -16.5 °C 34520.3 hPa NW 23.3 km/h 69.8 km/h 63 % 0 mm 278 W/m2
14:50 -13.3 °C -16.3 °C 34544 hPa NNW 36.2 km/h 75.2 km/h 69 % 0 mm 279 W/m2
14:55 -13.8 °C -16.6 °C 34544 hPa NNW 28.5 km/h 75.2 km/h 70 % 0 mm 125 W/m2
15:00 -14 °C -16.6 °C 34544 hPa North 28.5 km/h 69.8 km/h 72 % 0 mm 185 W/m2
15:05 -14.1 °C -16.7 °C 34544 hPa NW 7.7 km/h 41.4 km/h 72 % 0 mm 188 W/m2
15:10 -13.8 °C -16.4 °C 34544 hPa NNW 12.9 km/h 38.8 km/h 73 % 0 mm 197 W/m2
15:15 -13.7 °C -16.5 °C 34544 hPa WNW 12.9 km/h 33.6 km/h 70 % 0 mm 308 W/m2
15:20 -13.4 °C -16.4 °C 34544 hPa NW 25.9 km/h 36.2 km/h 68 % 0 mm 294 W/m2
15:25 -13.3 °C -16.7 °C 34544 hPa NNW 28.5 km/h 38.8 km/h 65 % 0 mm 272 W/m2
15:30 -13.3 °C -16.9 °C 34544 hPa NW 18.2 km/h 44.1 km/h 64 % 0 mm 244 W/m2
15:35 -13.4 °C -16.8 °C 34554.1 hPa North 15.6 km/h 44.1 km/h 65 % 0 mm 216 W/m2
15:40 -13.5 °C -17.1 °C 34544 hPa NNW 15.6 km/h 41.4 km/h 64 % 0 mm 200 W/m2
15:45 -13.6 °C -16.8 °C 34544 hPa NW 10.3 km/h 46.7 km/h 66 % 0 mm 186 W/m2
15:50 -13.6 °C -16.8 °C 34544 hPa WNW 10.3 km/h 46.7 km/h 67 % 0 mm 176 W/m2
15:55 -13.7 °C -16.8 °C 34554.1 hPa WNW 20.8 km/h 38.8 km/h 67 % 0 mm 105 W/m2
16:00 -13.7 °C -16.7 °C 34554.1 hPa NW 18.2 km/h 36.2 km/h 69 % 0 mm 142 W/m2
16:05 -13.7 °C -16.8 °C 34554.1 hPa NNW 28.5 km/h 36.2 km/h 68 % 0 mm 144 W/m2
16:10 -13.8 °C -16.6 °C 34554.1 hPa NW 10.3 km/h 44.1 km/h 70 % 0 mm 128 W/m2
16:15 -13.8 °C -16.8 °C 34554.1 hPa NNW 12.9 km/h 44.1 km/h 69 % 0 mm 118 W/m2
16:20 -13.8 °C -16.8 °C 34554.1 hPa West 23.3 km/h 38.8 km/h 69 % 0 mm 105 W/m2
16:25 -13.8 °C -16.7 °C 34554.1 hPa NW 7.7 km/h 41.4 km/h 70 % 0 mm 97 W/m2
16:30 -13.9 °C -16.6 °C 34554.1 hPa WNW 15.6 km/h 41.4 km/h 71 % 0 mm 84 W/m2
16:35 -13.9 °C -16.8 °C 34554.1 hPa NW 12.9 km/h 38.8 km/h 70 % 0 mm 58 W/m2
16:40 -14 °C -16.8 °C 34567.7 hPa NW 15.6 km/h 41.4 km/h 70 % 0 mm 32 W/m2
16:45 -14.1 °C -16.8 °C 34554.1 hPa WNW 33.6 km/h 41.4 km/h 71 % 0 mm 28 W/m2
16:50 -14 °C -16.7 °C 34554.1 hPa WNW 25.9 km/h 36.2 km/h 71 % 0 mm 26 W/m2
16:55 -14.1 °C -16.7 °C 34554.1 hPa NNW 18.2 km/h 31.1 km/h 72 % 0 mm 25 W/m2
17:00 -14.2 °C -16.8 °C 34554.1 hPa NW 12.9 km/h 31.1 km/h 72 % 0 mm 23 W/m2
17:05 -14.2 °C -16.8 °C 34554.1 hPa NW 18.2 km/h 31.1 km/h 72 % 0 mm 21 W/m2
17:10 -14.3 °C -16.7 °C 34567.7 hPa NW 12.9 km/h 25.9 km/h 74 % 0 mm 19 W/m2
17:15 -14.4 °C -16.9 °C 34554.1 hPa NNW 15.6 km/h 28.5 km/h 73 % 0 mm 16 W/m2
17:20 -14.4 °C -16.9 °C 34554.1 hPa NW 15.6 km/h 28.5 km/h 73 % 0 mm 12 W/m2
17:25 -14.6 °C -16.9 °C 34554.1 hPa WNW 20.8 km/h 36.2 km/h 74 % 0 mm 9 W/m2
17:30 -14.6 °C -17.1 °C 34554.1 hPa WNW 20.8 km/h 36.2 km/h 73 % 0 mm 7 W/m2
17:35 -14.6 °C -17.1 °C 34554.1 hPa NW 23.3 km/h 38.8 km/h 72 % 0 mm 7 W/m2
17:40 -14.5 °C -17.2 °C 34554.1 hPa NW 5.1 km/h 38.8 km/h 71 % 0 mm 5 W/m2
17:45 -14.5 °C -17.3 °C 34554.1 hPa NNW 15.6 km/h 36.2 km/h 70 % 0 mm 0 W/m2
17:50 -14.6 °C -17.4 °C 34554.1 hPa NW 12.9 km/h 36.2 km/h 70 % 0 mm 0 W/m2
17:55 -14.6 °C -17.3 °C 34567.7 hPa WNW 15.6 km/h 33.6 km/h 71 % 0 mm 0 W/m2
18:00 -14.6 °C -17.3 °C 34567.7 hPa North 12.9 km/h 41.4 km/h 71 % 0 mm 0 W/m2
18:05 -14.6 °C -17.2 °C 34577.8 hPa NW 18.2 km/h 41.4 km/h 72 % 0 mm 0 W/m2
18:10 -14.6 °C -17.1 °C 34577.8 hPa NNW 7.7 km/h 38.8 km/h 73 % 0 mm 0 W/m2
18:15 -14.9 °C -17.2 °C 34577.8 hPa NNW 5.1 km/h 31.1 km/h 74 % 0 mm 0 W/m2
18:20 -15.1 °C -17.3 °C 34577.8 hPa NNW 7.7 km/h 23.3 km/h 76 % 0 mm 0 W/m2
18:25 -15.2 °C -17.2 °C 34577.8 hPa NW 7.7 km/h 23.3 km/h 77 % 0 mm 0 W/m2
18:30 -15.4 °C -17.3 °C 34577.8 hPa NW 7.7 km/h 20.8 km/h 78 % 0 mm 0 W/m2
18:35 -15.4 °C -17.3 °C 34577.8 hPa NNW 5.1 km/h 20.8 km/h 78 % 0 mm 0 W/m2
18:40 -15.4 °C -17.4 °C 34577.8 hPa NW 2.6 km/h 23.3 km/h 78 % 0 mm 0 W/m2
18:45 -15.4 °C -17.4 °C 34577.8 hPa NNW 2.6 km/h 23.3 km/h 78 % 0 mm 0 W/m2
18:50 -15.6 °C -17.4 °C 34577.8 hPa NNW 10.3 km/h 20.8 km/h 79 % 0 mm 0 W/m2
18:55 -15.6 °C -17.4 °C 34577.8 hPa NW 12.9 km/h 25.9 km/h 79 % 0 mm 0 W/m2
19:00 -15.7 °C -17.5 °C 34577.8 hPa NNW 15.6 km/h 25.9 km/h 80 % 0 mm 0 W/m2
19:05 -15.8 °C -17.4 °C 34577.8 hPa NNW 10.3 km/h 20.8 km/h 81 % 0 mm 0 W/m2
19:10 -15.8 °C -17.4 °C 34577.8 hPa NNW 10.3 km/h 20.8 km/h 81 % 0 mm 0 W/m2
19:15 -15.8 °C -17.4 °C 34577.8 hPa NW 5.1 km/h 20.8 km/h 81 % 0 mm 0 W/m2
19:20 -15.9 °C -17.5 °C 34577.8 hPa NW 2.6 km/h 15.6 km/h 81 % 0 mm 0 W/m2
19:25 -16 °C -17.6 °C 34591.4 hPa NW 5.1 km/h 25.9 km/h 82 % 0 mm 0 W/m2
19:30 -16.1 °C -17.6 °C 34591.4 hPa NNW 2.6 km/h 25.9 km/h 83 % 0 mm 0 W/m2
19:35 -16.1 °C -17.6 °C 34591.4 hPa NW 5.1 km/h 15.6 km/h 83 % 0 mm 0 W/m2
19:40 -16.1 °C -17.6 °C 34591.4 hPa NNW 5.1 km/h 20.8 km/h 83 % 0 mm 0 W/m2
19:45 -16 °C -17.4 °C 34591.4 hPa NNW 2.6 km/h 25.9 km/h 83 % 0 mm 0 W/m2
19:50 -15.9 °C -17.4 °C 34591.4 hPa NW 2.6 km/h 25.9 km/h 82 % 0 mm 0 W/m2
19:55 -15.9 °C -17.5 °C 34591.4 hPa NW 2.6 km/h 23.3 km/h 82 % 0 mm 0 W/m2
20:00 -15.9 °C -17.4 °C 34591.4 hPa NW 5.1 km/h 12.9 km/h 83 % 0 mm 0 W/m2
20:05 -15.9 °C -17.4 °C 34591.4 hPa Calm   25.9 km/h 83 % 0 mm 0 W/m2
20:10 -16 °C -17.4 °C 34591.4 hPa NNW 7.7 km/h 25.9 km/h 83 % 0 mm 0 W/m2
20:15 -16 °C -17.6 °C 34591.4 hPa NNW 5.1 km/h 18.2 km/h 82 % 0 mm 0 W/m2
20:20 -15.9 °C -17.5 °C 34601.5 hPa WNW 2.6 km/h 18.2 km/h 82 % 0 mm 0 W/m2
20:25 -15.9 °C -17.4 °C 34601.5 hPa WNW 12.9 km/h 28.5 km/h 82 % 0 mm 0 W/m2
20:30 -15.8 °C -17.4 °C 34601.5 hPa NNW 15.6 km/h 28.5 km/h 81 % 0 mm 0 W/m2
20:35 -15.7 °C -17.3 °C 34601.5 hPa NW 25.9 km/h 28.5 km/h 81 % 0 mm 0 W/m2
20:40 -15.7 °C -17.4 °C 34611.7 hPa WNW 15.6 km/h 36.2 km/h 80 % 0 mm 0 W/m2
20:45 -15.7 °C -17.4 °C 34601.5 hPa NW 10.3 km/h 36.2 km/h 80 % 0 mm 0 W/m2
20:50 -15.6 °C -17.4 °C 34611.7 hPa NW 10.3 km/h 31.1 km/h 79 % 0 mm 0 W/m2
20:55 -15.5 °C -17.4 °C 34611.7 hPa NNW 18.2 km/h 38.8 km/h 78 % 0 mm 0 W/m2
21:00 -15.6 °C -17.5 °C 34611.7 hPa NW 15.6 km/h 38.8 km/h 78 % 0 mm 0 W/m2
21:05 -15.7 °C -17.5 °C 34611.7 hPa NNW 15.6 km/h 28.5 km/h 79 % 0 mm 0 W/m2
21:10 -15.7 °C -17.5 °C 34611.7 hPa NW 18.2 km/h 28.5 km/h 79 % 0 mm 0 W/m2
21:15 -15.7 °C -17.5 °C 34611.7 hPa NW 12.9 km/h 25.9 km/h 79 % 0 mm 0 W/m2
21:20 -15.6 °C -17.4 °C 34611.7 hPa NNW 7.7 km/h 25.9 km/h 79 % 0 mm 0 W/m2
21:25 -15.6 °C -17.4 °C 34611.7 hPa WNW 20.8 km/h 23.3 km/h 79 % 0 mm 0 W/m2
21:30 -15.6 °C -17.4 °C 34611.7 hPa NNW 7.7 km/h 25.9 km/h 79 % 0 mm 0 W/m2
21:35 -15.7 °C -17.5 °C 34611.7 hPa West 15.6 km/h 31.1 km/h 79 % 0 mm 0 W/m2
21:40 -15.6 °C -17.3 °C 34611.7 hPa WNW 15.6 km/h 44.1 km/h 80 % 0 mm 0 W/m2
21:50 -15.6 °C -17.4 °C 34611.7 hPa NW 18.2 km/h 36.2 km/h 79 % 0 mm 0 W/m2
21:55 -15.5 °C -17.4 °C 34611.7 hPa West 28.5 km/h 51.8 km/h 79 % 0 mm 0 W/m2
22:00 -15.5 °C -17.4 °C 34611.7 hPa NW 10.3 km/h 51.8 km/h 78 % 0 mm 0 W/m2
22:05 -15.6 °C -17.5 °C 34611.7 hPa NNW 10.3 km/h 41.4 km/h 78 % 0 mm 0 W/m2
22:10 -15.7 °C -17.5 °C 34611.7 hPa NNW 18.2 km/h 38.8 km/h 79 % 0 mm 0 W/m2
22:15 -15.5 °C -17.4 °C 34611.7 hPa North 15.6 km/h 38.8 km/h 79 % 0 mm 0 W/m2
22:20 -15.6 °C -17.3 °C 34611.7 hPa WNW 15.6 km/h 33.6 km/h 80 % 0 mm 0 W/m2
22:25 -15.6 °C -17.3 °C 34611.7 hPa NW 28.5 km/h 31.1 km/h 80 % 0 mm 0 W/m2
22:30 -15.6 °C -17.2 °C 34611.7 hPa WNW 31.1 km/h 38.8 km/h 81 % 0 mm 0 W/m2
22:35 -15.6 °C -17.2 °C 34611.7 hPa NW 23.3 km/h 38.8 km/h 81 % 0 mm 0 W/m2
22:40 -15.6 °C -17.2 °C 34611.7 hPa WNW 25.9 km/h 31.1 km/h 81 % 0 mm 0 W/m2
22:45 -15.6 °C -17.2 °C 34625.2 hPa NW 10.3 km/h 31.1 km/h 81 % 0 mm 0 W/m2
22:50 -15.6 °C -17.2 °C 34625.2 hPa NW 7.7 km/h 31.1 km/h 81 % 0 mm 0 W/m2
22:55 -15.7 °C -17.3 °C 34625.2 hPa NW 7.7 km/h 28.5 km/h 81 % 0 mm 0 W/m2
23:00 -15.7 °C -17.3 °C 34625.2 hPa NW 15.6 km/h 28.5 km/h 81 % 0 mm 0 W/m2
23:05 -15.7 °C -17.4 °C 34625.2 hPa WNW 15.6 km/h 33.6 km/h 81 % 0 mm 0 W/m2
23:10 -15.8 °C -17.4 °C 34635.4 hPa NNW 12.9 km/h 33.6 km/h 82 % 0 mm 0 W/m2
23:15 -15.9 °C -17.4 °C 34635.4 hPa NW 12.9 km/h 33.6 km/h 82 % 0 mm 0 W/m2
23:20 -15.8 °C -17.3 °C 34635.4 hPa NNE 10.3 km/h 44.1 km/h 82 % 0 mm 0 W/m2
23:25 -15.7 °C -17.4 °C 34635.4 hPa NW 10.3 km/h 44.1 km/h 81 % 0 mm 0 W/m2
23:30 -15.9 °C -17.5 °C 34635.4 hPa NW 23.3 km/h 38.8 km/h 81 % 0 mm 0 W/m2
23:35 -15.9 °C -17.6 °C 34635.4 hPa NW 7.7 km/h 33.6 km/h 81 % 0 mm 0 W/m2
23:40 -16 °C -17.6 °C 34645.6 hPa NNW 12.9 km/h 41.4 km/h 82 % 0 mm 0 W/m2
23:45 -15.9 °C -17.5 °C 34645.6 hPa NNW 25.9 km/h 41.4 km/h 82 % 0 mm 0 W/m2
23:50 -15.9 °C -17.4 °C 34645.6 hPa NNW 12.9 km/h 41.4 km/h 82 % 0 mm 0 W/m2
23:55 -16 °C -17.4 °C 34645.6 hPa NW 10.3 km/h 33.6 km/h 83 % 0 mm 0 W/m2
Avec l'autorisation de Weather Underground - 1.75 mb